This demonstration page uses our WeatherBlox Daily Observations layout. Learn more.

Left ArrowRight Arrow

Hourly Observations for May 12, 2017

Temp ( °F °C ) Dew Point ( °F °C ) Humidity (%) Winds ( mph kmh ) Pressure ( in mb ) Visibility ( mi km ) Precip ( " mm )
12:53 am 00:53 Clear 66 18.9 43 6.1 43 43 NNE 10 17 29.98 1015 10 16 0.00 0.00
1:53 am 01:53 Clear 63 17.2 44 6.7 50 50 NNE 13 20 29.98 1015 10 16 0.00 0.00
2:53 am 02:53 Clear 62 16.7 45 7.2 54 54 N 8 13 29.99 1016 10 16 0.00 0.00
3:53 am 03:53 Clear 60 15.6 46 7.8 60 60 NNE 9 15 30.00 1016 10 16 0.00 0.00
4:53 am 04:53 Clear 59 15 46 7.8 62 62 NNE 12 19 30.00 1016 10 16 0.00 0.00
5:53 am 05:53 Clear 57 13.9 46 7.8 67 67 N 7 11 30.09 1019 10 16 0.00 0.00
6:53 am 06:53 Clear 55 12.8 46 7.8 72 72 NNW 7 11 30.12 1020 10 16 0.00 0.00
7:43 am 07:43 Mostly Sunny 57 13.9 47 8.3 69 69 NNW 7 11 30.12 1020 10 16 0.00 0.00
7:53 am 07:53 Mostly Sunny 57 13.9 47 8.3 69 69 NW 7 11 30.07 1018 10 16 0.00 0.00
8:53 am 08:53 Sunny 61 16.1 47 8.3 60 60 N 12 19 30.08 1019 10 16 0.00 0.00
9:53 am 09:53 Sunny 65 18.3 47 8.3 52 52 NNE 12 19 30.07 1018 10 16 0.00 0.00
10:53 am 10:53 Sunny 68 20 45 7.2 44 44 NNE 14 22 30.06 1018 10 16 0.00 0.00
11:14 am 11:14 Mostly Sunny 68 20 45 7.2 44 44 N 6 9 30.06 1018 10 16 0.00 0.00
11:53 am 11:53 Sunny 71 21.7 44 6.7 38 38 N 9 15 30.05 1018 10 16 0.00 0.00
12:53 pm 12:53 Sunny 74 23.3 44 6.7 34 34 undefined N/A 30.02 1017 10 16 0.00 0.00
1:53 pm 13:53 Sunny 76 24.4 43 6.1 31 31 N 9 15 29.98 1015 10 16 0.00 0.00
2:53 pm 14:53 Sunny 80 26.7 41 5 25 25 NE 9 15 29.96 1015 10 16 0.00 0.00
3:53 pm 15:53 Sunny 81 27.2 39 3.9 22 22 NW 9 15 29.93 1013 10 16 0.00 0.00
4:53 pm 16:53 Sunny 82 27.8 39 3.9 22 22 undefined N/A 29.90 1012 10 16 0.00 0.00
5:53 pm 17:53 Sunny 81 27.2 38 3.3 21 21 Calm 29.88 1012 10 16 0.00 0.00
6:53 pm 18:53 Sunny 82 27.8 38 3.3 21 21 NNE 7 11 29.87 1012 10 16 0.00 0.00
7:53 pm 19:53 Sunny 81 27.2 37 2.8 21 21 NNE 9 15 29.87 1011 10 16 0.00 0.00
8:53 pm 20:53 Clear 74 23.3 37 2.8 26 26 NNE 7 11 29.88 1012 10 16 0.00 0.00
9:53 pm 21:53 Clear 69 20.6 37 2.8 31 31 NE 8 13 29.89 1012 10 16 0.00 0.00
10:53 pm 22:53 Clear 68 20 37 2.8 32 32 E 7 11 29.89 1012 10 16 0.00 0.00
11:53 pm 23:53 Clear 65 18.3 36 2.2 34 34 ENE 7 11 29.89 1012 10 16 0.00 0.00

Powered by AerisWeather